[[{"header":{"parameterUnit":"m.s-1","parameterCategory":1,"la1":30.2991,"la2":30.254,"lo1":-89.0895,"lo2":-89.0444,"dy":0.0017,"dx":0.0017,"nx":28,"ny":28,"refTime":"2026-02-13T03:00:00:Z","depth":0,"parameterNumber":2,"parameterNumberName":"U-component_of_WINDS"},"data":[0,0,0,0,0,0,0,0,0,0,0,0,0,0,0,0,0,0,0,0,0,0,0,0,0,0,0,0,0,0,0,0,0,0,0,0,0,0,0,0,0,0,0,0,0,0,0,0,0,0,0,0,0,0,0,0,0,0,0.165,0.165,0,0.17,0.1701,0.1701,0.1719,0.1719,0.1719,0.1719,0.1771,0.1773,0.1774,0,0,0,0,0,0,0,0,0,0,0,0,0,0.157,0.1572,0.165,0.165,0.1651,0.17,0.1701,0.1701,0.1719,0.1719,0.1719,0.1719,0.1771,0.1772,0.1774,0,0,0,0,0,0,0,0,0,0,0,0,0,0.1611,0.1572,0.165,0.1666,0.1668,0.17,0.1701,0.1702,0.172,0.1719,0.1719,0.1719,0.177,0.1772,0.1775,0.1794,0,0,0.1782,0.1783,0,0,0,0,0,0,0,0,0.1609,0.1614,0.1663,0.1665,0.1667,0.1703,0.1692,0.1733,0.172,0.17,0.1719,0.1719,0.1749,0.1753,0.1763,0.1797,0.1799,0.1782,0.1783,0.1784,0.1785,0,0,0,0,0,0,0,0.1606,0.1612,0.167,0.1664,0.1666,0.1671,0.1677,0.17,0.1725,0.1702,0.1703,0.1709,0.175,0.1761,0.1764,0.18,0.1782,0.1784,0.1785,0.1786,0.1853,0.1853,0,0,0,0,0,0,0.16,0.161,0.1668,0.1671,0.1637,0.1673,0.1679,0.1692,0.1725,0.173,0.1709,0.1709,0.1757,0.1761,0.1766,0.1792,0.1784,0.1786,0.1788,0.1853,0.1853,0.1854,0,0,0,0,0,0,0.1599,0.1605,0.1666,0.1641,0.1649,0.1674,0.1689,0.1693,0.1704,0.1731,0.1735,0.1715,0.1757,0.1763,0.1787,0.1794,0.1788,0.179,0.1852,0.1853,0.1853,0.1843,0,0,0,0,0,0,0.1596,0.1605,0.1612,0.1641,0.165,0.1686,0.1689,0.1694,0.1708,0.1709,0.1738,0.1742,0.1757,0.1784,0.179,0.1797,0.1791,0.1852,0.1853,0.1853,0.1843,0.1843,0.1843,0,0,0,0,0,0.1593,0.1607,0.1612,0.1619,0.166,0.1686,0.1692,0.1708,0.1708,0.1716,0.1733,0.1741,0.1792,0.1786,0.1793,0.1801,0.1851,0.1852,0.1853,0.1843,0.1843,0.1843,0,0,0,0,0,0,0.1578,0.1611,0.1617,0.1641,0.1661,0.1689,0.17,0.1708,0.1728,0.1729,0.1749,0.1755,0.1778,0.1792,0.1784,0.1822,0.1822,0.1825,0.1812,0.1813,0.1813,0.1809,0.1793,0,0,0,0,0,0.1578,0.1596,0.1624,0.1642,0.1651,0.1674,0.1686,0.1697,0.1719,0.1727,0.1746,0.1767,0.1788,0.1801,0.1822,0.1845,0.1852,0.1854,0.1854,0.1854,0.1856,0.187,0.1872,0.1856,0.1856,0.1856,0,0,0.1577,0.1597,0.1607,0.1639,0.1656,0.1675,0.1681,0.17,0.1715,0.173,0.1754,0.1769,0.1794,0.1818,0.1829,0.183,0.1862,0.1855,0.1855,0.1857,0.1871,0.1872,0.1874,0.1857,0.1857,0.1857,0,0,0.1584,0.1601,0.1618,0.1635,0.166,0.1675,0.1679,0.1707,0.1718,0.1742,0.1754,0.1772,0.1807,0.1824,0.1838,0.1853,0.1861,0.1859,0.186,0.1874,0.1875,0.1876,0.1882,0.1884,0.1861,0.1861,0.1861,0,0.158,0.1609,0.1626,0.1645,0.1659,0.1674,0.1692,0.1708,0.1738,0.1748,0.1748,0.1793,0.1811,0.184,0.1843,0.1854,0.1859,0.1856,0.1873,0.1875,0.1876,0.1882,0.1884,0.186,0.186,0.1861,0.1861,0,0.1602,0.1622,0.1633,0.1662,0.1677,0.1696,0.1716,0.173,0.174,0.1755,0.178,0.1802,0.1828,0.1835,0.1845,0.1866,0.1865,0.1869,0.187,0.1877,0.1883,0.1885,0.186,0.186,0.186,0.186,0,0,0.1601,0.164,0.1644,0.1658,0.1687,0.1703,0.1722,0.1747,0.1759,0.178,0.1797,0.1827,0.1831,0.1846,0.1858,0.187,0.1881,0.1873,0.1874,0.1874,0.1905,0.1902,0.1904,0.1887,0.1887,0.1888,0.1903,0,0.1612,0.1647,0.1664,0.1692,0.1711,0.1726,0.1743,0.1763,0.1778,0.1796,0.1813,0.1834,0.1837,0.1847,0.1859,0.1877,0.1888,0.1876,0.1903,0.1904,0.1896,0.1907,0.1904,0.1917,0.1906,0.1906,0.1906,0,0.163,0.1651,0.1681,0.1709,0.1717,0.1732,0.1757,0.1774,0.1798,0.1808,0.1825,0.1837,0.1859,0.1858,0.1888,0.188,0.1892,0.1903,0.1904,0.1907,0.1905,0.1911,0.1922,0.1924,0.191,0.191,0.1909,0,0.1627,0.1663,0.1685,0.1696,0.1729,0.174,0.1754,0.1777,0.1791,0.1813,0.1822,0.1846,0.1859,0.1878,0.1896,0.1894,0.1925,0.1926,0.1934,0.1934,0.194,0.1939,0.1953,0.1948,0.1948,0.1948,0.1948,0,0.1638,0.1655,0.1684,0.1698,0.1718,0.1738,0.1757,0.1773,0.1794,0.1811,0.1826,0.1842,0.1865,0.1884,0.1899,0.1922,0.1928,0.1937,0.1941,0.1936,0.1935,0.1944,0.1943,0.1948,0.1948,0.1948,0.1948,0,0.1637,0.1657,0.1682,0.1712,0.172,0.1733,0.1759,0.1773,0.1789,0.1811,0.1817,0.1842,0.1865,0.1886,0.1917,0.1927,0.1951,0.1955,0.1943,0.1945,0.1952,0.1951,0.1973,0.1977,0.1968,0.1968,0.1968,0,0.1643,0.1657,0.1688,0.17,0.1714,0.1735,0.1749,0.1769,0.1784,0.1812,0.1823,0.1848,0.1869,0.1906,0.1927,0.1951,0.1956,0.1962,0.196,0.1955,0.1956,0.1955,0.1957,0.1962,0.1962,0.1962,0.1962,0,0.1651,0.166,0.168,0.1704,0.1721,0.1741,0.1762,0.1771,0.1796,0.1811,0.1836,0.1852,0.1884,0.1908,0.1935,0.195,0.196,0.1963,0.1966,0.1961,0.1953,0.1957,0.1943,0.1962,0.1962,0.1962,0.1962,0.1962,0.1654,0.1667,0.1691,0.1713,0.1731,0.175,0.1765,0.1782,0.1803,0.183,0.1841,0.1866,0.189,0.1927,0.1942,0.1962,0.1964,0.1969,0.197,0.1971,0.197,0.195,0.1967,0.1967,0.1967,0.1967,0.1967,0,0.1662,0.1679,0.1699,0.1727,0.1745,0.1753,0.1777,0.1791,0.1812,0.1834,0.1854,0.1882,0.1906,0.193,0.1955,0.1967,0.1972,0.1973,0.1972,0.1976,0.1967,0.1962,0.1968,0.1968,0.1968,0.1968,0.1968,0.1968,0.1669,0.1692,0.1704,0.1736,0.1753,0.1777,0.179,0.1808,0.1825,0.1856,0.1876,0.1891,0.1913,0.194,0.1963,0.1969,0.1978,0.1977,0.1985,0.1976,0.1976,0.1976,0.1971,0.1979,0.1979,0.1992,0.1992,0.1992]},{"header":{"parameterUnit":"m.s-1","parameterCategory":1,"la1":30.2991,"la2":30.254,"lo1":-89.0895,"lo2":-89.0444,"dy":0.0017,"dx":0.0017,"nx":28,"ny":28,"refTime":"2026-02-13T03:00:00:Z","depth":0,"parameterNumber":3,"parameterNumberName":"V-component_of_WINDS"},"data":[0,0,0,0,0,0,0,0,0,0,0,0,0,0,0,0,0,0,0,0,0,0,0,0,0,0,0,0,0,0,0,0,0,0,0,0,0,0,0,0,0,0,0,0,0,0,0,0,0,0,0,0,0,0,0,0,0,0,-0.4631,-0.4631,0,-0.4662,-0.4662,-0.4663,-0.4666,-0.4666,-0.4666,-0.4665,-0.4698,-0.47,-0.4701,0,0,0,0,0,0,0,0,0,0,0,0,0,-0.4574,-0.4575,-0.4631,-0.4631,-0.4631,-0.4662,-0.4662,-0.4663,-0.4666,-0.4666,-0.4666,-0.4665,-0.4698,-0.4699,-0.4701,0,0,0,0,0,0,0,0,0,0,0,0,0,-0.4601,-0.4575,-0.463,-0.4637,-0.4638,-0.4662,-0.4663,-0.4663,-0.4666,-0.4666,-0.4665,-0.4665,-0.4698,-0.4699,-0.4701,-0.4722,0,0,-0.4706,-0.4707,0,0,0,0,0,0,0,0,-0.46,-0.4603,-0.4635,-0.4636,-0.4637,-0.466,-0.4655,-0.4683,-0.4666,-0.4655,-0.4665,-0.4665,-0.4686,-0.4689,-0.4696,-0.4723,-0.4725,-0.4707,-0.4708,-0.4708,-0.4709,0,0,0,0,0,0,0,-0.4598,-0.4602,-0.4643,-0.4636,-0.4637,-0.4638,-0.4641,-0.466,-0.4673,-0.4656,-0.4657,-0.466,-0.4686,-0.4694,-0.4697,-0.4725,-0.4707,-0.4708,-0.4709,-0.471,-0.4771,-0.4772,0,0,0,0,0,0,-0.4595,-0.46,-0.4642,-0.4644,-0.4617,-0.464,-0.4643,-0.4653,-0.4673,-0.4675,-0.4661,-0.466,-0.4691,-0.4694,-0.4698,-0.4723,-0.4708,-0.471,-0.4711,-0.4771,-0.4772,-0.4772,0,0,0,0,0,0,-0.4593,-0.4598,-0.4641,-0.4622,-0.4628,-0.4641,-0.4652,-0.4654,-0.4661,-0.4676,-0.4679,-0.4666,-0.4691,-0.4695,-0.4716,-0.4725,-0.4711,-0.4713,-0.477,-0.4771,-0.4772,-0.4775,0,0,0,0,0,0,-0.4592,-0.4598,-0.4606,-0.4622,-0.4629,-0.4658,-0.4652,-0.4655,-0.4664,-0.4664,-0.4682,-0.4684,-0.4691,-0.4713,-0.4717,-0.4727,-0.4714,-0.4769,-0.4771,-0.4772,-0.4774,-0.4776,-0.4777,0,0,0,0,0,-0.459,-0.4605,-0.4606,-0.4611,-0.4639,-0.4659,-0.4662,-0.4669,-0.4665,-0.4673,-0.4683,-0.4684,-0.4723,-0.4715,-0.472,-0.473,-0.4769,-0.477,-0.4772,-0.4773,-0.4775,-0.4777,0,0,0,0,0,0,-0.459,-0.4608,-0.4609,-0.463,-0.4643,-0.4659,-0.467,-0.4671,-0.4686,-0.4685,-0.4693,-0.4697,-0.4717,-0.4726,-0.4717,-0.4751,-0.4746,-0.4748,-0.4745,-0.4747,-0.4749,-0.4746,-0.4715,0,0,0,0,0,-0.4592,-0.4606,-0.4621,-0.4639,-0.4645,-0.4656,-0.4665,-0.4669,-0.4683,-0.4688,-0.4699,-0.4713,-0.4728,-0.4738,-0.4753,-0.4775,-0.4779,-0.4784,-0.4786,-0.4787,-0.4789,-0.4802,-0.4804,-0.4776,-0.4776,-0.4776,0,0,-0.4597,-0.4609,-0.4617,-0.4639,-0.4649,-0.4664,-0.4661,-0.4677,-0.4688,-0.4691,-0.4711,-0.4719,-0.4735,-0.4756,-0.4766,-0.4764,-0.4798,-0.4789,-0.479,-0.4791,-0.4803,-0.4806,-0.4808,-0.4777,-0.4777,-0.4777,0,0,-0.4615,-0.4625,-0.464,-0.4651,-0.4666,-0.4673,-0.4677,-0.4693,-0.4699,-0.4719,-0.4722,-0.4735,-0.4761,-0.4772,-0.4781,-0.4803,-0.4804,-0.4807,-0.4815,-0.4828,-0.483,-0.4832,-0.484,-0.4842,-0.4809,-0.4809,-0.4809,0,-0.4619,-0.4641,-0.4648,-0.4664,-0.4674,-0.4677,-0.4693,-0.4703,-0.4723,-0.4729,-0.4726,-0.4759,-0.477,-0.4794,-0.4799,-0.4806,-0.4811,-0.4805,-0.4829,-0.4831,-0.4833,-0.4841,-0.4843,-0.4809,-0.4809,-0.4809,-0.4809,0,-0.4647,-0.4662,-0.4673,-0.4692,-0.4702,-0.4718,-0.4728,-0.4738,-0.4741,-0.4749,-0.4769,-0.4782,-0.48,-0.4806,-0.4809,-0.4831,-0.4829,-0.4827,-0.4822,-0.4836,-0.4843,-0.4846,-0.481,-0.481,-0.481,-0.481,0,0,-0.4665,-0.4687,-0.4691,-0.4699,-0.4717,-0.4729,-0.4745,-0.4762,-0.4771,-0.4784,-0.4798,-0.482,-0.4819,-0.4829,-0.4834,-0.4844,-0.4861,-0.4841,-0.4842,-0.4845,-0.4885,-0.4886,-0.489,-0.4861,-0.4862,-0.4863,-0.4884,0,-0.4684,-0.4713,-0.472,-0.4744,-0.4759,-0.4762,-0.4776,-0.4788,-0.4796,-0.4809,-0.4818,-0.4833,-0.483,-0.4836,-0.4847,-0.4856,-0.4869,-0.4855,-0.4875,-0.4876,-0.4871,-0.4893,-0.4895,-0.4914,-0.4887,-0.4887,-0.4888,0,-0.4711,-0.4725,-0.4751,-0.4766,-0.4772,-0.4785,-0.4801,-0.4814,-0.4828,-0.4833,-0.4844,-0.4848,-0.4865,-0.4858,-0.4882,-0.4872,-0.4881,-0.4887,-0.4888,-0.489,-0.4883,-0.4897,-0.4921,-0.4924,-0.4892,-0.4892,-0.4891,0,-0.4722,-0.4747,-0.4766,-0.4773,-0.4792,-0.48,-0.4808,-0.4822,-0.4832,-0.4846,-0.4852,-0.4868,-0.4877,-0.489,-0.4898,-0.4892,-0.4921,-0.4915,-0.4926,-0.4926,-0.4932,-0.4932,-0.4958,-0.4937,-0.4937,-0.4937,-0.4937,0,-0.4743,-0.4759,-0.4771,-0.4783,-0.4801,-0.4808,-0.4826,-0.4834,-0.4846,-0.486,-0.4863,-0.4876,-0.4885,-0.49,-0.4906,-0.4925,-0.4929,-0.4933,-0.4935,-0.4933,-0.4933,-0.4939,-0.4938,-0.4938,-0.4938,-0.4937,-0.4937,0,-0.4759,-0.4768,-0.4789,-0.4804,-0.4808,-0.4821,-0.4834,-0.4846,-0.4853,-0.487,-0.4875,-0.4887,-0.4903,-0.4912,-0.4934,-0.4938,-0.4959,-0.496,-0.4955,-0.4955,-0.4966,-0.4965,-0.4998,-0.5003,-0.4978,-0.4978,-0.4978,0,-0.4772,-0.4785,-0.4801,-0.481,-0.4819,-0.4833,-0.4843,-0.4851,-0.4861,-0.4878,-0.4888,-0.4905,-0.4918,-0.4945,-0.4956,-0.4972,-0.4973,-0.4984,-0.4976,-0.4974,-0.4974,-0.4973,-0.4975,-0.4985,-0.4985,-0.4986,-0.4986,0,-0.4795,-0.4799,-0.4813,-0.4828,-0.484,-0.4852,-0.4865,-0.4872,-0.4882,-0.4894,-0.4911,-0.4921,-0.4943,-0.4959,-0.4976,-0.4985,-0.4987,-0.4988,-0.4992,-0.499,-0.4987,-0.4989,-0.4959,-0.4987,-0.4987,-0.4987,-0.4987,-0.4987,-0.481,-0.4821,-0.4835,-0.485,-0.486,-0.4872,-0.4884,-0.4892,-0.4907,-0.4924,-0.4928,-0.4946,-0.496,-0.4983,-0.4992,-0.5007,-0.5005,-0.5009,-0.5011,-0.5012,-0.5013,-0.4984,-0.501,-0.501,-0.501,-0.501,-0.5009,0,-0.4833,-0.4842,-0.4856,-0.4873,-0.4886,-0.4886,-0.49,-0.491,-0.4926,-0.4939,-0.4952,-0.4972,-0.4988,-0.5,-0.5017,-0.5026,-0.5027,-0.503,-0.503,-0.5032,-0.5013,-0.5009,-0.5029,-0.5029,-0.5029,-0.5029,-0.5029,-0.5029,-0.4847,-0.4866,-0.4871,-0.4895,-0.4904,-0.4921,-0.4929,-0.494,-0.495,-0.4971,-0.4985,-0.4992,-0.5005,-0.5022,-0.5037,-0.5041,-0.5047,-0.5049,-0.5053,-0.5035,-0.5033,-0.5031,-0.5027,-0.5051,-0.5051,-0.507,-0.507,-0.5071]}]]